This is the latest recevied weather packets stored in our database for station/object CE1RLP-31. If no packets are shown the sender has not sent any weather packets the latest 10 day(s).
| Time | Temp. | Humidity | Pressure | Rain* | Wind** | Luminosity | Snow |
|---|---|---|---|---|---|---|---|
| 1777671456 | 13.33° C | 8% | 1099.8 hPa | - | - | - | - |
| 1777670556 | 13.33° C | 9% | 1099.7 hPa | - | - | - | - |
| 1777669656 | 13.33° C | 9% | 1099.8 hPa | - | - | - | - |
| 1777667856 | 13.89° C | 8% | 1099.4 hPa | - | - | - | - |
| 1777666956 | 13.89° C | 8% | 1099.4 hPa | - | - | - | - |
| 1777666055 | 14.44° C | 8% | 1099.4 hPa | - | - | - | - |
| 1777664255 | 15° C | 8% | 1099.5 hPa | - | - | - | - |
| 1777660655 | 16.67° C | 7% | 1099.6 hPa | - | - | - | - |
| 1777659755 | 16.67° C | 8% | 1099.5 hPa | - | - | - | - |
| 1777658855 | 16.67° C | 7% | 1099.7 hPa | - | - | - | - |
| 1777657955 | 17.22° C | 6% | 1099.7 hPa | - | - | - | - |
| 1777657054 | 17.22° C | 6% | 1099.7 hPa | - | - | - | - |
| 1777656154 | 17.22° C | 6% | 1099.8 hPa | - | - | - | - |
| 1777653454 | 16.67° C | 7% | 1100.1 hPa | - | - | - | - |
| 1777652554 | 16.11° C | 7% | 1100.2 hPa | - | - | - | - |
| 1777651654 | 15° C | 7% | 1100.2 hPa | - | - | - | - |
| 1777650755 | 14.44° C | 7% | 1100.3 hPa | - | - | - | - |
| 1777649855 | 13.89° C | 7% | 1100.4 hPa | - | - | - | - |
| 1777648955 | 13.33° C | 7% | 1100.5 hPa | - | - | - | - |
| 1777648055 | 12.78° C | 8% | 1100.4 hPa | - | - | - | - |
| 1777647155 | 12.22° C | 7% | 1100.4 hPa | - | - | - | - |
| 1777646255 | 11.67° C | 7% | 1100.6 hPa | - | - | - | - |
| 1777645355 | 11.11° C | 7% | 1100.6 hPa | - | - | - | - |
| 1777644455 | 10.56° C | 7% | 1100.5 hPa | - | - | - | - |
| 1777643554 | 10.56° C | 7% | 1100.5 hPa | - | - | - | - |
* Rain since midnight (hover to see other rain measurements)
** Current wind speed in m/s (hover to see current wind gust speed)